Cordoba, Spain

8:28 PM CET on February 09, 2016 (GMT +0100)
Cordoba

Weather History for LEBA - June, 2013

Change the Weather History Date:

Sunday, June 30, 2013

  Actual Average Record
Temperature  
Mean Temperature 80 °F -  
Max Temperature 101 °F - - ()
Min Temperature 60 °F - - ()
Cooling Degree Days 16    
Growing Degree Days 30 (Base 50)    
Moisture  
Dew Point 47 °F    
Average Humidity 30    
Maximum Humidity 72    
Minimum Humidity 8    
Precipitation  
Precipitation 0.00 in 0.01 in - ()
Sea Level Pressure  
Sea Level Pressure 29.99 in    
Wind  
Wind Speed 3 mph ()    
Max Wind Speed 13 mph    
Max Gust Speed -    
T = Trace of Precipitation, MM = Missing Value Source: Averaged Metar Reports

Daily Weather History Graph

Daily Weather History Graph

Search for Another Location

Airport or City:

Trip Planner

Search our weather history database for the weather conditions in past years. The results will help you decide how hot, cold, wet, or windy it might be!

Date:

Astronomy

Jun. 30, 2013 Rise Set
Actual Time 7:00 AM CEST 9:45 PM CEST
Civil Twilight 6:29 AM CEST 10:16 PM CEST
Nautical Twilight 5:50 AM CEST 10:55 PM CEST
Astronomical Twilight 5:05 AM CEST 11:39 PM CEST
Moon 1:46 AM CEST (6/30) 2:50 PM CEST (6/30)
Length of Visible Light 15h 47m
Length of Day
14h 45m
Waning Gibbous, 48% of the Moon is Illuminated
Jun 30
Waning Gibbous
Jul 8
New
Jul 16
First Quarter
Jul 22
Full
Jul 29
Last Quarter

Hourly Weather History & Observations

Time (CEST) Temp. Dew Point Humidity Pressure Visibility Wind Dir Wind Speed Gust Speed Precip Events Conditions
2:00 AM 70 °F 51 °F 39% 30.09 in - South 4.6 mph - -  
7:00 AM 60.8 °F 51.8 °F 72% 30.06 in - Calm Calm - N/A   Clear
8:00 AM 66 °F 52 °F 52% 30.06 in 25 mi Calm Calm - -  
8:00 AM 66.2 °F 51.8 °F 60% 30.06 in - Calm Calm - N/A   Clear
9:00 AM 69.8 °F 51.8 °F 53% 30.06 in - Variable 1.2 mph - N/A   Clear
10:00 AM 73.4 °F 51.8 °F 47% 30.06 in - East 6.9 mph - N/A   Clear
11:00 AM 82.4 °F 50.0 °F 32% 30.04 in - East 6.9 mph - N/A   Clear
12:00 PM 84.2 °F 48.2 °F 29% 30.04 in - East 8.1 mph - N/A   Clear
1:00 PM 87.8 °F 50.0 °F 27% 30.04 in - ENE 4.6 mph - N/A   Clear
2:00 PM 94 °F 43 °F 10% 29.99 in 25 mi East 3.5 mph - -  
2:00 PM 91.4 °F 46.4 °F 21% 30.01 in - East 3.5 mph - N/A   Clear
3:00 PM 93.2 °F 44.6 °F 19% 29.98 in - SE 1.2 mph - N/A   Clear
4:00 PM 95.0 °F 41.0 °F 15% 29.95 in - South 6.9 mph - N/A   Clear
5:00 PM 95.0 °F 42.8 °F 16% 29.92 in - South 2.3 mph - N/A   Clear
6:00 PM 96.8 °F 39.2 °F 14% 29.92 in - Variable 2.3 mph - N/A   Clear
7:00 PM 96.8 °F 41.0 °F 15% 29.89 in - SSW 5.8 mph - N/A   Clear
8:00 PM 97 °F 41 °F 8% 29.88 in 25 mi SSW 12.7 mph - -  
8:00 PM 93.2 °F 44.6 °F 19% 29.89 in - SSW 11.5 mph - N/A   Clear
9:00 PM 89.6 °F 44.6 °F 21% 29.89 in - WSW 6.9 mph - N/A   Clear